TimeCST,TemperatureF,Dew PointF,Humidity,Sea Level PressureIn,VisibilityMPH,Wind Direction,Wind SpeedMPH,Gust SpeedMPH,PrecipitationIn,Events,Conditions,WindDirDegrees,DateUTC
12:56 AM,39.0,21.0,49,30.75,10.0,NNW,5.8,-,N/A,,Clear,330,2013-11-13 06:56:00
1:56 AM,37.0,21.0,52,30.76,10.0,NNW,6.9,-,N/A,,Clear,340,2013-11-13 07:56:00
2:56 AM,36.0,21.0,55,30.76,10.0,NW,8.1,-,N/A,,Clear,320,2013-11-13 08:56:00
3:56 AM,35.1,21.0,57,30.76,10.0,NW,6.9,-,N/A,,Clear,320,2013-11-13 09:56:00
4:56 AM,34.0,21.0,59,30.76,10.0,NNW,4.6,-,N/A,,Clear,330,2013-11-13 10:56:00
5:56 AM,33.1,19.9,59,30.76,10.0,NNW,5.8,-,N/A,,Clear,330,2013-11-13 11:56:00
6:56 AM,32.0,21.0,64,30.77,10.0,NNW,5.8,-,N/A,,Clear,330,2013-11-13 12:56:00
7:56 AM,35.1,21.0,57,30.77,10.0,NNW,6.9,-,N/A,,Clear,340,2013-11-13 13:56:00
8:56 AM,39.0,23.0,53,30.78,10.0,North,5.8,-,N/A,,Clear,10,2013-11-13 14:56:00
9:56 AM,44.1,23.0,43,30.77,10.0,Variable,4.6,-,N/A,,Clear,0,2013-11-13 15:56:00
10:56 AM,46.9,19.9,34,30.75,10.0,NNE,5.8,-,N/A,,Clear,30,2013-11-13 16:56:00
11:56 AM,50.0,21.9,33,30.71,10.0,SE,3.5,-,N/A,,Clear,140,2013-11-13 17:56:00
12:56 PM,53.1,23.0,31,30.65,10.0,Calm,Calm,-,N/A,,Clear,0,2013-11-13 18:56:00
1:56 PM,55.0,23.0,29,30.62,10.0,Calm,Calm,-,N/A,,Clear,0,2013-11-13 19:56:00
2:56 PM,55.9,21.9,27,30.58,10.0,North,5.8,-,N/A,,Clear,350,2013-11-13 20:56:00
3:56 PM,55.0,21.0,27,30.57,10.0,ENE,3.5,-,N/A,,Clear,70,2013-11-13 21:56:00
4:56 PM,54.0,23.0,30,30.56,10.0,ENE,4.6,-,N/A,,Clear,60,2013-11-13 22:56:00
5:56 PM,48.0,25.0,41,30.56,10.0,East,3.5,-,N/A,,Clear,80,2013-11-13 23:56:00
6:56 PM,44.1,26.1,49,30.56,10.0,NNE,3.5,-,N/A,,Clear,30,2013-11-14 00:56:00
7:56 PM,43.0,26.1,51,30.56,10.0,Calm,Calm,-,N/A,,Clear,0,2013-11-14 01:56:00
8:56 PM,41.0,27.0,57,30.55,10.0,Calm,Calm,-,N/A,,Clear,0,2013-11-14 02:56:00
9:56 PM,39.0,28.0,65,30.53,10.0,Calm,Calm,-,N/A,,Clear,0,2013-11-14 03:56:00
10:56 PM,37.0,30.9,79,30.51,10.0,Calm,Calm,-,N/A,,Clear,0,2013-11-14 04:56:00
11:56 PM,36.0,28.0,73,30.49,10.0,Calm,Calm,-,N/A,,Clear,0,2013-11-14 05:56:00